User: anonymous   Login
Location: Quebec
(46.8000°N, 71.2500°W)
Time: 02:04:55
(UTC-04:00)
Language:

CZ-4B R/B - Orbit

View from above orbital plane
View from above orbital plane
View from above satellite
View from above satellite

Ground track
Ground track

The orbit data is extracted from the following two-line orbital elements,

1 29093U 06015B   15185.81063942  .00004646  00000-0  13983-3 0  9995
2 29093 097.4946 273.0625 0077299 351.1962 121.8147 15.31941382508004
Epoch (UTC): 04 July 2015 19:27:19
Eccentricity: 0.0077299
inclination: 97.4946°
perigee height: 417 km
apogee height: 523 km
right ascension of ascending node: 273.0625°
argument of perigee: 351.1962°
revolutions per day: 15.31941382
mean anomaly at epoch: 121.8147°
orbit number at epoch: 50800

The dashed part of the orbit path shows where the satellite is in the earth's shadow,  

DLR